This is the latest recevied weather packets stored in our database for station/object KF5JED-13. If no packets are shown the sender has not sent any weather packets the latest 10 day(s).
| Time | Temp. | Humidity | Pressure | Rain* | Wind** | Luminosity | Snow |
|---|---|---|---|---|---|---|---|
| 1777898327 | 14.44° C | 63% | 1008.9 hPa | 0 mm | - | 37 W/m² | - |
| 1777898024 | 14.44° C | 63% | 1009 hPa | 0 mm | - | 35 W/m² | - |
| 1777897720 | 14.44° C | 63% | 1008.9 hPa | 0 mm | - | 26 W/m² | - |
| 1777897417 | 14.44° C | 63% | 1009 hPa | 0 mm | - | 20 W/m² | - |
| 1777897113 | 14.44° C | 63% | 1009 hPa | 0 mm | - | 17 W/m² | - |
| 1777896809 | 14.44° C | 63% | 1008.9 hPa | 0 mm | - | 13 W/m² | - |
| 1777896507 | 14.44° C | 63% | 1008.7 hPa | 0 mm | - | 9 W/m² | - |
| 1777896204 | 14.44° C | 63% | 1008.8 hPa | 0 mm | - | 6 W/m² | - |
| 1777895902 | 14.44° C | 63% | 1008.7 hPa | 0 mm | - | 4 W/m² | - |
| 1777895599 | 14.44° C | 63% | 1008.8 hPa | 0 mm | - | 3 W/m² | - |
| 1777894691 | 14.44° C | 63% | 1008.8 hPa | 0 mm | - | 0 W/m² | - |
| 1777894388 | 14.44° C | 63% | 1008.4 hPa | 0 mm | - | 0 W/m² | - |
| 1777894085 | 15° C | 62% | 1008.7 hPa | 0 mm | - | 0 W/m² | - |
| 1777893782 | 15° C | 62% | 1008.7 hPa | 0 mm | - | 0 W/m² | - |
| 1777893479 | 15° C | 61% | 1008.7 hPa | 0 mm | - | 0 W/m² | - |
| 1777893175 | 15° C | 61% | 1008.9 hPa | 0 mm | - | 0 W/m² | - |
| 1777892871 | 15° C | 61% | 1009 hPa | 0 mm | - | 0 W/m² | - |
| 1777892568 | 15° C | 61% | 1009 hPa | 0 mm | - | 0 W/m² | - |
| 1777891658 | 15° C | 61% | 1009 hPa | 0 mm | - | 0 W/m² | - |
| 1777890744 | 15° C | 62% | 1009.1 hPa | 0 mm | - | 0 W/m² | - |
| 1777890136 | 15° C | 61% | 1009.2 hPa | 0 mm | - | 0 W/m² | - |
| 1777889833 | 15° C | 61% | 1009.2 hPa | 0 mm | - | 0 W/m² | - |
| 1777889530 | 15° C | 61% | 1009.3 hPa | 0 mm | - | 0 W/m² | - |
| 1777889228 | 15° C | 61% | 1009.2 hPa | 0 mm | - | 0 W/m² | - |
| 1777888926 | 15° C | 60% | 1009.3 hPa | 0 mm | - | 0 W/m² | - |
* Rain latest hour (hover to see other rain measurements)
** Current wind speed in m/s (hover to see current wind gust speed)